Tracking 19281 objects as of 16-Nov-2018
HD Live streaming from Space Station
objects crossing your sky now

APSTAR 1

Track APSTAR 1 now!
APSTAR 1 is classified as:


NORAD ID: 23185
Int'l Code: 1994-043A
Perigee: 36,019.1 km
Apogee: 36,075.2 km
Inclination: 10.5 °
Period: 1,449.1 minutes
Semi major axis: 42418 km
RCS: 25.1188 m2 (large)
Launch date: July 21, 1994
Source: People's Republic of China (PRC)
Launch site: Xichang Space Center, China (XSC)

24 C-band transponders.
aabbcc
Your satellite tracking list
Your tracking list is empty




NASA's NSSDC Master Catalog

Two Line Element Set (TLE):
1 23185U 94043A   18319.36722549 +.00000082 +00000-0 +00000-0 0  9999
2 23185 010.4873 036.4635 0006613 291.2201 090.9239 00.99374503017543
Source of the keplerian elements: AFSPC